Weather History for Lakeville, MN

Change the Weather History Date:

Wednesday, October 13, 2010

  Actual Average Record
Temperature  
Mean Temperature 52 °F -  
Max Temperature 64 °F 59 °F 86 °F (1956)
Min Temperature 41 °F 38 °F 25 °F (1980)
Degree Days  
Heating Degree Days 12    
Growing Degree Days 2 (Base 50)    
Moisture  
Dew Point 35 °F    
Average Humidity 57    
Maximum Humidity 87    
Minimum Humidity 30    
Precipitation  
Precipitation 0.00 in - - ()
Sea Level Pressure  
Sea Level Pressure 30.19 in    
Wind  
Wind Speed 7 mph (WNW)    
Max Wind Speed 15 mph    
Max Gust Speed 21 mph    
Visibility 10 miles    
Events      
Averages and records for this station are not official NWS values.
T = Trace of Precipitation, MM = Missing Value Source: NWS Daily Summary

Daily Weather History Graph

Daily Weather History Graph

Search for Another Location

Airport:

Trip Planner

Search our weather history database for the weather conditions in past years. The results will help you decide how hot, cold, wet, or windy it might be!

Date:

Astronomy

Oct. 13, 2010 Rise Set
Actual Time 7:25 AM CDT 6:31 PM CDT
Civil Twilight 6:56 AM CDT 7:01 PM CDT
Nautical Twilight 6:22 AM CDT 7:34 PM CDT
Astronomical Twilight 5:48 AM CDT 8:08 PM CDT
Moon 1:58 PM CDT (10/13) 11:00 PM CDT (10/13)
Length of Visible Light 12h 04m
Length of Day
11h 06m
Waxing Crescent, 38% of the Moon is Illuminated
Oct 13
Waxing Crescent
Oct 14
First Quarter
Oct 22
Full
Oct 30
Last Quarter
Nov 5
New

Hourly Weather History & Observations

Time (CDT) Temp. Windchill Dew Point Humidity Pressure Visibility Wind Dir Wind Speed Gust Speed Precip Events Conditions
12:10 AM 46.4 °F 43.5 °F 39.2 °F 76% 30.14 in 10.0 mi West 5.8 mph - N/A   Clear
12:30 AM 46.4 °F 43.5 °F 39.2 °F 76% 30.14 in 10.0 mi West 5.8 mph - N/A   Clear
12:50 AM 44.6 °F 40.7 °F 37.4 °F 76% 30.15 in 10.0 mi West 6.9 mph - N/A   Clear
1:10 AM 44.6 °F 40.7 °F 37.4 °F 76% 30.15 in 10.0 mi West 6.9 mph - N/A   Clear
1:30 AM 44.6 °F 41.4 °F 37.4 °F 76% 30.15 in 10.0 mi West 5.8 mph - N/A   Clear
1:50 AM 44.6 °F 42.2 °F 37.4 °F 76% 30.15 in 10.0 mi WNW 4.6 mph - N/A   Clear
2:10 AM 44.6 °F 41.4 °F 37.4 °F 76% 30.16 in 10.0 mi WNW 5.8 mph - N/A   Clear
2:30 AM 44.6 °F 41.4 °F 37.4 °F 76% 30.16 in 10.0 mi WNW 5.8 mph - N/A   Clear
2:50 AM 42.8 °F 39.3 °F 37.4 °F 81% 30.16 in 10.0 mi West 5.8 mph - N/A   Clear
3:10 AM 44.6 °F 41.4 °F 37.4 °F 76% 30.16 in 10.0 mi West 5.8 mph - N/A   Clear
3:30 AM 42.8 °F 38.6 °F 37.4 °F 81% 30.16 in 10.0 mi West 6.9 mph - N/A   Clear
3:50 AM 41.0 °F 37.1 °F 37.4 °F 87% 30.16 in 10.0 mi West 5.8 mph - N/A   Clear
4:10 AM 41.0 °F 36.4 °F 37.4 °F 87% 30.16 in 10.0 mi West 6.9 mph - N/A   Clear
4:30 AM 42.8 °F 38.6 °F 37.4 °F 81% 30.17 in 10.0 mi West 6.9 mph - N/A   Clear
4:50 AM 42.8 °F 38.6 °F 37.4 °F 81% 30.17 in 10.0 mi West 6.9 mph - N/A   Clear
5:10 AM 42.8 °F 38.6 °F 37.4 °F 81% 30.18 in 10.0 mi West 6.9 mph - N/A   Clear
5:30 AM 42.8 °F 39.3 °F 37.4 °F 81% 30.18 in 10.0 mi West 5.8 mph - N/A   Clear
5:50 AM 41.0 °F 36.4 °F 35.6 °F 81% 30.19 in 10.0 mi West 6.9 mph - N/A   Clear
6:10 AM 42.8 °F 38.6 °F 37.4 °F 81% 30.19 in 10.0 mi West 6.9 mph - N/A   Clear
6:30 AM 42.8 °F 39.3 °F 35.6 °F 76% 30.19 in 10.0 mi West 5.8 mph - N/A   Clear
6:50 AM 42.8 °F 40.1 °F 35.6 °F 76% 30.20 in 10.0 mi West 4.6 mph - N/A   Clear
7:10 AM 41.0 °F - 35.6 °F 81% 30.20 in 10.0 mi Calm Calm - N/A   Clear
7:30 AM 41.0 °F 38.0 °F 35.6 °F 81% 30.20 in 10.0 mi West 4.6 mph - N/A   Clear
7:50 AM 42.8 °F 39.3 °F 35.6 °F 76% 30.21 in 10.0 mi West 5.8 mph - N/A   Clear
8:10 AM 44.6 °F 41.4 °F 35.6 °F 71% 30.21 in 10.0 mi West 5.8 mph - N/A   Clear
8:30 AM 46.4 °F 43.5 °F 37.4 °F 71% 30.22 in 10.0 mi West 5.8 mph - N/A   Clear
8:50 AM 46.4 °F 45.2 °F 37.4 °F 71% 30.22 in 10.0 mi West 3.5 mph - N/A   Clear
9:10 AM 48.2 °F - 37.4 °F 66% 30.22 in 10.0 mi WNW 8.1 mph - N/A   Clear
9:30 AM 51.8 °F - 37.4 °F 58% 30.22 in 10.0 mi West 6.9 mph - N/A   Clear
9:50 AM 51.8 °F - 37.4 °F 58% 30.22 in 10.0 mi West 8.1 mph - N/A   Clear
10:10 AM 53.6 °F - 37.4 °F 54% 30.23 in 10.0 mi West 5.8 mph - N/A   Clear
10:30 AM 55.4 °F - 37.4 °F 51% 30.23 in 10.0 mi WNW 8.1 mph - N/A   Clear
10:50 AM 57.2 °F - 37.4 °F 48% 30.23 in 10.0 mi West 6.9 mph - N/A   Clear
11:10 AM 57.2 °F - 37.4 °F 48% 30.23 in 10.0 mi West 8.1 mph - N/A   Clear
11:30 AM 60.8 °F - 37.4 °F 42% 30.23 in 10.0 mi WNW 8.1 mph - N/A   Clear
11:50 AM 60.8 °F - 35.6 °F 39% 30.22 in 10.0 mi WNW 8.1 mph - N/A   Clear
12:10 PM 60.8 °F - 35.6 °F 39% 30.22 in 10.0 mi West 9.2 mph - N/A   Clear
12:30 PM 62.6 °F - 33.8 °F 34% 30.21 in 10.0 mi WNW 9.2 mph - N/A   Clear
12:50 PM 62.6 °F - 35.6 °F 37% 30.21 in 10.0 mi NW 8.1 mph - N/A   Clear
1:10 PM 62.6 °F - 33.8 °F 34% 30.20 in 10.0 mi NNW 10.4 mph - N/A   Clear
1:30 PM 62.6 °F - 33.8 °F 34% 30.20 in 10.0 mi WNW 12.7 mph 17.3 mph N/A   Clear
1:50 PM 62.6 °F - 32.0 °F 32% 30.19 in 10.0 mi NW 12.7 mph 17.3 mph N/A   Scattered Clouds
2:10 PM 60.8 °F - 33.8 °F 36% 30.19 in 10.0 mi WNW 10.4 mph - N/A   Clear
2:30 PM 62.6 °F - 32.0 °F 32% 30.18 in 10.0 mi NW 15.0 mph - N/A   Clear
2:50 PM 64.4 °F - 32.0 °F 30% 30.18 in 10.0 mi WNW 13.8 mph 18.4 mph N/A   Clear
3:10 PM 62.6 °F - 32.0 °F 32% 30.18 in 10.0 mi NW 13.8 mph 20.7 mph N/A   Clear
3:30 PM 62.6 °F - 33.8 °F 34% 30.18 in 10.0 mi West 10.4 mph 18.4 mph N/A   Clear
3:50 PM 62.6 °F - 33.8 °F 34% 30.18 in 10.0 mi NW 11.5 mph - N/A   Scattered Clouds
4:10 PM 62.6 °F - 33.8 °F 34% 30.18 in 10.0 mi NW 6.9 mph 16.1 mph N/A   Clear
4:30 PM 62.6 °F - 30.2 °F 30% 30.17 in 10.0 mi NW 12.7 mph 18.4 mph N/A   Clear
4:50 PM 62.6 °F - 30.2 °F 30% 30.17 in 10.0 mi NW 10.4 mph 16.1 mph N/A   Clear
5:10 PM 60.8 °F - 30.2 °F 31% 30.17 in 10.0 mi WNW 10.4 mph - N/A   Clear
5:30 PM 60.8 °F - 30.2 °F 31% 30.17 in 10.0 mi NW 10.4 mph - N/A   Clear
5:50 PM 59.0 °F - 30.2 °F 34% 30.17 in 10.0 mi WNW 8.1 mph - N/A   Clear
6:10 PM 57.2 °F - 30.2 °F 36% 30.18 in 10.0 mi WNW 6.9 mph - N/A   Clear
6:30 PM 53.6 °F - 30.2 °F 41% 30.18 in 10.0 mi West 4.6 mph - N/A   Clear
6:50 PM 53.6 °F - 30.2 °F 41% 30.18 in 10.0 mi West 4.6 mph - N/A   Clear
7:10 PM 53.6 °F - 30.2 °F 41% 30.18 in 10.0 mi West 4.6 mph - N/A   Clear
7:30 PM 53.6 °F - 32.0 °F 44% 30.19 in 10.0 mi West 6.9 mph - N/A   Clear
7:50 PM 51.8 °F - 32.0 °F 47% 30.19 in 10.0 mi West 6.9 mph - N/A   Clear
8:10 PM 50.0 °F - 32.0 °F 50% 30.19 in 10.0 mi West 6.9 mph - N/A   Clear
8:30 PM 48.2 °F - 32.0 °F 54% 30.19 in 10.0 mi West 5.8 mph - N/A   Clear
8:50 PM 50.0 °F - 32.0 °F 50% 30.19 in 10.0 mi West 6.9 mph - N/A   Clear
9:10 PM 46.4 °F 43.5 °F 33.8 °F 62% 30.19 in 10.0 mi West 5.8 mph - N/A   Clear
9:30 PM 48.2 °F - 32.0 °F 54% 30.19 in 10.0 mi West 5.8 mph - N/A   Clear
9:50 PM 46.4 °F 44.3 °F 33.8 °F 62% 30.19 in 10.0 mi West 4.6 mph - N/A   Clear
10:10 PM 48.2 °F - 32.0 °F 54% 30.19 in 10.0 mi West 5.8 mph - N/A   Clear
10:30 PM 42.8 °F - 33.8 °F 70% 30.19 in 10.0 mi Calm Calm - N/A   Clear
10:50 PM 42.8 °F - 33.8 °F 70% 30.19 in 10.0 mi Calm Calm - N/A   Clear
11:10 PM 41.0 °F 39.0 °F 33.8 °F 76% 30.19 in 10.0 mi WSW 3.5 mph - N/A   Clear
11:30 PM 42.8 °F 41.1 °F 33.8 °F 70% 30.18 in 10.0 mi WSW 3.5 mph - N/A   Clear
11:50 PM 44.6 °F 42.2 °F 32.0 °F 61% 30.18 in 10.0 mi WSW 4.6 mph - N/A   Clear